Location: Newark
(33.6439°N, 114.9881°W)
Time: 16:52:56
(UTC+00:00)

A-11 Canister half - Pass Details

Date: 26 August 2019
Orbit: 1527 x 1682 km, 47.3° (Epoch: 16 September)

Event Time Altitude Azimuth Distance (km) Brightness Sun altitude
Rises 21:12:32 0° 287° (WNW) 4,878 11.8 58.7°
Reaches altitude 10° 21:16:03 10° 295° (WNW) 3,909 11.4 58.2°
Maximum altitude 21:25:10 37° 1° (N) 2,403 10.3 56.7°
Drops below altitude 10° 21:34:23 10° 66° (ENE) 3,943 10.9 55.2°
Sets 21:37:57 0° 75° (ENE) 4,926 11.3 54.6°
